KE7JL Weather Reports


time (UTC)temp
C
wind
direction
speed
KPH
gust
KPH
rain 1hr
cm
rain 24hr
cm
rain mn
cm
humidity
%
barometer
mb
20260503223340 23 333 0.0 0.0 0.00 0.00 0.00 54 1009.6
20260503220356 24 332 0.0 0.0 0.00 0.00 0.00 52 1010.0
20260503213343 22 284 0.0 0.0 0.00 0.00 0.00 56 1010.2
20260503210359 21 273 0.0 0.0 0.00 0.00 0.00 61 1010.5
20260503203347 22 262 0.0 0.0 0.00 0.00 0.00 59 1010.8
20260503200349 22 236 0.0 0.0 0.00 0.00 0.00 52 1011.1
20260503193343 22 318 0.0 0.0 0.00 0.00 0.00 52 1011.7
20260503190408 21 360 0.0 0.0 0.00 0.00 0.00 54 1012.0
20260503183338 21 15 0.0 0.0 0.00 0.00 0.00 55 1012.4
20260503180420 19 218 0.0 0.0 0.00 0.00 0.00 66 1012.5
20260503173336 21 355 0.0 0.0 0.00 0.00 0.00 60 1012.7
20260503170405 20 355 0.0 0.0 0.00 0.00 0.00 64 1013.0
20260503150408 13 82 0.0 0.0 0.00 0.00 0.00 88 1013.5
20260503130352 10 82 0.0 0.0 0.00 0.00 0.00 91 1013.2
20260503110350 12 96 0.0 0.0 0.00 0.00 0.00 86 1013.4
20260503090351 13 37 0.0 0.0 0.00 0.00 0.00 82 1013.5
20260503080357 13 17 0.0 0.0 0.00 0.00 0.00 78 1013.5
20260503070351 14 14 0.0 0.0 0.00 0.00 0.00 76 1013.3
20260503053337 16 12 0.0 0.0 0.00 0.00 0.00 67 1013.1
20260503050355 17 12 0.0 0.0 0.00 0.00 0.00 66 1013.1
20260503043359 17 11 0.0 0.0 0.00 0.00 0.00 65 1012.8
20260503040349 18 11 0.0 0.0 0.00 0.00 0.00 62 1012.5
20260503033330 20 11 0.0 0.0 0.00 0.00 0.00 60 1012.0
20260503030403 22 10 0.0 0.0 0.00 0.00 0.00 47 1011.8
20260503023344 22 15 0.0 0.0 0.00 0.00 0.00 47 1011.6
20260503020406 22 360 0.0 0.0 0.00 0.00 0.00 52 1011.6
20260503013346 22 324 0.0 0.0 0.00 0.00 0.00 52 1011.7
20260503010429 22 339 0.0 0.0 0.00 0.00 0.00 60 1011.5
20260503003335 22 355 0.0 0.0 0.00 0.00 0.00 59 1011.7
20260503000400 22 303 0.0 0.0 0.00 0.00 0.00 57 1011.8
20260502233336 23 360 0.0 0.0 0.00 0.00 0.00 55 1012.1
20260502230357 22 34 0.0 0.0 0.00 0.00 0.00 55 1012.6